Location: Vale
(35.4830°N, 81.3830°W)
Time: 12:56:02
(UTC-04:00)

Cosmos 2237 Rocket - Visible Passes

Search period start: 29 August 2015 00:00
Search period end: 08 September 2015 00:00
Orbit: 836 x 849 km, 71.0° (Epoch: 28 August)

Date Brightness Start Highest point End Pass type
(mag) Time Alt. Az. Time Alt. Az. Time Alt. Az.
29 Aug 3.7 03:37:37 31° E 03:37:37 31° E 03:41:30 10° NE visible
29 Aug 3.1 05:19:28 27° W 05:20:35 29° WNW 05:25:24 10° N visible
30 Aug 4.0 03:23:32 26° ENE 03:23:32 26° ENE 03:26:39 10° NE visible
30 Aug 3.1 05:05:23 31° WNW 05:05:45 31° WNW 05:10:40 10° N visible
31 Aug 4.3 03:09:24 21° ENE 03:09:24 21° ENE 03:11:46 10° NE visible
31 Aug 3.1 04:51:15 32° NW 04:51:15 32° NW 04:55:54 10° N visible
01 Sep 4.5 02:55:14 18° ENE 02:55:14 18° ENE 02:56:54 10° NE visible
01 Sep 3.2 04:37:04 32° NW 04:37:04 32° NW 04:41:09 10° N visible
02 Sep 4.8 02:41:01 14° NE 02:41:01 14° NE 02:42:01 10° NE visible
02 Sep 3.4 04:22:51 30° NNW 04:22:51 30° NNW 04:26:23 10° N visible
03 Sep 5.0 02:26:47 11° NE 02:26:47 11° NE 02:27:08 10° NE visible
03 Sep 3.7 04:08:37 27° NNW 04:08:37 27° NNW 04:11:37 10° N visible
04 Sep 3.9 03:54:20 24° N 03:54:20 24° N 03:56:51 10° N visible
05 Sep 4.2 03:40:01 21° N 03:40:01 21° N 03:42:05 10° N visible
06 Sep 4.4 03:25:41 19° N 03:25:41 19° N 03:27:19 10° N visible
07 Sep 4.6 03:11:20 16° N 03:11:20 16° N 03:12:32 10° N visible
